SES-15 (42709 NORAD) Tracking and Keplerian Element Data

This shows tracking and keplerian element data for the satellite.

Feedback or suggestion? Click here.




ElementValue
Catalog42709
NameSES-15
Epoch Orbit666
Epoch Day348.12889794
Epoch Year2018
RAAN345.4762
Inclination0.0155
Eccentricity7.13E-05
Argument of Perigee270.0114
Mean Anonmoly104.5174
Mean Motion1.00271073
Decay Rate7E-07
L11 42709U 17026A 18348.12889794 .00000070 00000-0 00000-0 0 9997
L22 42709 0.0155 345.4762 0000713 270.0114 104.5174 1.00271073 6663

Live tracking and technical data element details for SES-15 (NORAD 42709). SES-15 can be tracked NOW for your location showing map with azimuth and elevation plus other details from your city location.

Track the satellite on the map from your city or location and see movement details for azimuth, elevation, latitude, longitude, range, height, and movement on the map or in text.







IsCatalogInMostPopularTable: catalog: 42709, numindb: 153
Update: records affected: 1



GetName: 42709 SES-15

Hit Count: updated at: Sat, 15 Dec 2018 13:41:14 GMT